Lima, OH

8:52 AM EDT on May 27, 2018 (GMT -0400)
Lima Allen County

Weather History for KAOH - August, 2013

Change the Weather History Date:

Sunday, August 25, 2013

  Actual Average (KFDY) Record (KFDY)
Temperature  
Mean Temperature 74 °F -  
Max Temperature 86 °F 80 °F 93 °F (1959)
Min Temperature 62 °F 58 °F 44 °F (1951)
Cooling Degree Days 9    
Growing Degree Days 24 (Base 50)    
Moisture  
Dew Point 59 °F    
Average Humidity 64    
Maximum Humidity 87    
Minimum Humidity 38    
Precipitation  
Precipitation 0.00 in - - ()
Sea Level Pressure  
Sea Level Pressure 30.27 in    
Wind  
Wind Speed 6 mph (South)    
Max Wind Speed 10 mph    
Max Gust Speed -    
Visibility 10 miles    
Events      
Averages and records for this station are not official NWS values.
T = Trace of Precipitation, MM = Missing Value Source: NWS Daily Summary

Daily Weather History Graph

Daily Weather History Graph

Search for Another Location

Airport or City:

Astronomy

Aug. 25, 2013 Rise Set
Actual Time 6:56 AM EDT 8:18 PM EDT
Civil Twilight 6:27 AM EDT 8:47 PM EDT
Nautical Twilight 5:53 AM EDT 9:21 PM EDT
Astronomical Twilight 5:17 AM EDT 9:57 PM EDT
Moon 10:47 PM EDT (8/25) 11:59 AM EDT (8/25)
Length of Visible Light 14h 19m
Length of Day
13h 22m
Waning Gibbous, 76% of the Moon is Illuminated
Aug 25
Waning Gibbous
Aug 28
Last Quarter
Sep 5
New
Sep 12
First Quarter
Sep 19
Full

Hourly Weather History & Observations

Time (EDT) Temp. Heat Index Dew Point Humidity Pressure Visibility Wind Dir Wind Speed Gust Speed Precip Events Conditions
12:53 AM 63.0 °F - 57.0 °F 81% 30.27 in 10.0 mi ESE 4.6 mph - N/A   Clear
1:53 AM 63.0 °F - 57.0 °F 81% 30.27 in 10.0 mi ESE 5.8 mph - N/A   Clear
2:53 AM 62.1 °F - 55.9 °F 80% 30.27 in 10.0 mi SE 4.6 mph - N/A   Clear
3:53 AM 62.1 °F - 55.0 °F 78% 30.28 in 10.0 mi SE 4.6 mph - N/A   Clear
4:53 AM 64.0 °F - 55.9 °F 75% 30.29 in 10.0 mi SSE 6.9 mph - N/A   Partly Cloudy
5:53 AM 63.0 °F - 55.9 °F 78% 30.30 in 10.0 mi South 5.8 mph - N/A   Clear
6:53 AM 63.0 °F - 55.9 °F 78% 30.32 in 10.0 mi SSE 6.9 mph - N/A   Scattered Clouds
7:53 AM 64.9 °F - 57.9 °F 78% 30.32 in 10.0 mi SSE 6.9 mph - N/A   Clear
8:53 AM 69.1 °F - 61.0 °F 75% 30.33 in 10.0 mi South 6.9 mph - N/A   Clear
9:53 AM 73.9 °F - 62.1 °F 66% 30.32 in 10.0 mi South 8.1 mph - N/A   Clear
10:53 AM 78.1 °F - 61.0 °F 56% 30.32 in 10.0 mi SSW 9.2 mph - N/A   Clear
11:53 AM 80.1 °F 80.9 °F 60.1 °F 50% 30.32 in 10.0 mi SSW 5.8 mph - N/A   Clear
12:53 PM 82.9 °F 83.2 °F 60.1 °F 46% 30.31 in 10.0 mi SSW 10.4 mph - N/A   Clear
1:53 PM 84.0 °F 83.5 °F 57.9 °F 41% 30.29 in 10.0 mi WSW 8.1 mph - N/A   Clear
2:53 PM 84.9 °F 83.9 °F 57.0 °F 38% 30.27 in 10.0 mi SSW 8.1 mph - N/A   Clear
3:53 PM 86.0 °F 85.0 °F 57.9 °F 38% 30.25 in 10.0 mi SSW 4.6 mph - N/A   Clear
4:53 PM 84.9 °F 83.9 °F 57.0 °F 38% 30.23 in 10.0 mi South 5.8 mph - N/A   Clear
5:53 PM 84.9 °F 83.9 °F 57.0 °F 38% 30.22 in 10.0 mi South 6.9 mph - N/A   Clear
6:53 PM 82.9 °F 83.3 °F 61.0 °F 47% 30.22 in 10.0 mi South 5.8 mph - N/A   Clear
7:53 PM 78.1 °F - 63.0 °F 60% 30.21 in 10.0 mi South 3.5 mph - N/A   Clear
8:53 PM 73.0 °F - 62.1 °F 68% 30.22 in 10.0 mi South 3.5 mph - N/A   Clear
9:53 PM 68.0 °F - 61.0 °F 78% 30.24 in 10.0 mi Calm Calm - N/A   Clear
10:53 PM 68.0 °F - 61.0 °F 78% 30.24 in 10.0 mi Calm Calm - N/A   Clear
11:53 PM 64.0 °F - 60.1 °F 87% 30.25 in 10.0 mi Calm Calm - N/A   Clear